World > North America > United States > Mississippi > Maben  

Maben, MS Hourly Weather Updates

Feedback E-mail the Weather

Quick Clicks

Maben, MS Weather Maps

°F °C°F °C
Maben Weather Map
UTC Time: 6/17/2024, 19:00
Your Time:

Maben, MS Regional Weather

Expires:202406171900;;186548
ASUS44 KJAN 171810
RWRMS 

MISSISSIPPI HOURLY WEATHER ROUNDUP
NATIONAL WEATHER SERVICE JACKSON MS
100 PM CDT MON JUN 17 2024

NOTE: "FAIR: INDICATES FEW OR NO CLOUDS BELOW 12,000 FEET WITH NO
SIGNIFICANT WEATHER AND/OR OBSTRUCTIONS TO VISIBILITY.


MSZ003>006-009-014>017-022>024-029>033-037>039-171900-
NORTHEAST MISSISSIPPI
  
CITY           SKY/WX    TMP DP  RH WIND       PRES   REMARKS
ABERDEEN       PTSUNNY   88  75  66 SE6       30.06S HX  97           
COLUMBUS AFB   NOT AVBL                                               
CORINTH        MOSUNNY   88  73  62 VRB7G16   30.04F HX  96           
GOLDN TRIANGLE CLOUDY    87  73  62 SE10      30.05F HX  94           
IUKA           PTSUNNY   86  74  68 SE6       30.06F HX  94           
LOUISVILLE     CLOUDY    86  72  62 SE9       30.08S HX  92           
STARKVILLE     CLOUDY    86  73  66 SE9G15    30.03S HX  93           
TUPELO         PTSUNNY   90  74  59 SE8       30.03F HX  99           
6HR MIN TEMP:  77; 6HR MAX TEMP:  91; 6HR PCP:  0.01;                

$$


SKY/WX - Weather  TMP - Temperature  DP - Dew Point  RH - Humidity
WIND - Wind Direction/Speed PRES - Barometric Pressure VSB - Visibility
WCI - Wind Chill Index E13G22 Wind - East Wind 13 mph/Gusts of 22 mph

Trending Headlines

Trending Entertainment Headlines

Maben Radar Loop

Use the map search tool if you want to place a location marker on the radar map...

Maben Quick Facts

National Two Day Weather Forecast


E-mail the Maben Weather Forecast

Voice your opinion or tell us about page issues...